Weather History for K2G4 - March, 2014

Change the Weather History Date:

Saturday, March 1, 2014

  Actual Average (KMGW) Record (KMGW)
Temperature  
Mean Temperature 28 °F 37 °F  
Max Temperature 41 °F 47 °F 75 °F (1972)
Min Temperature 14 °F 28 °F 9 °F (1967)
Degree Days  
Heating Degree Days 38 28  
Month to date heating degree days 28  
Since 1 July heating degree days 3917  
Cooling Degree Days 0 0  
Month to date cooling degree days 0  
Year to date cooling degree days 0  
Moisture  
Dew Point 12 °F    
Average Humidity 49    
Maximum Humidity 75    
Minimum Humidity 24    
Precipitation  
Precipitation 0.00 in 0.10 in 1.11 in (1954)
Month to date precipitation 0.10  
Year to date precipitation 5.51  
Sea Level Pressure  
Sea Level Pressure 30.08 in    
Wind  
Wind Speed 11 mph (SW)    
Max Wind Speed 15 mph    
Max Gust Speed 24 mph    
Visibility 10 miles    
Events      
T = Trace of Precipitation, MM = Missing Value Source: NWS Daily Summary

Daily Weather History Graph

Daily Weather History Graph

Search for Another Location

Airport or City:

Trip Planner

Search our weather history database for the weather conditions in past years. The results will help you decide how hot, cold, wet, or windy it might be!

Date:

Astronomy

Mar. 01, 2014 Rise Set
Actual Time 6:50 AM EST 6:09 PM EST
Civil Twilight 6:23 AM EST 6:36 PM EST
Nautical Twilight 5:52 AM EST 7:07 PM EST
Astronomical Twilight 5:21 AM EST 7:39 PM EST
Moon 6:43 AM EST (3/1) 6:54 PM EST (3/1)
Length of Visible Light 12h 13m
Length of Day
11h 19m
New Moon, 0% of the Moon is Illuminated
Mar 1
New Moon
Mar 8
First Quarter
Mar 16
Full
Mar 23
Last Quarter
Mar 30
New

Hourly Weather History & Observations

Time (EST) Temp. Windchill Dew Point Humidity Pressure Visibility Wind Dir Wind Speed Gust Speed Precip Events Conditions
12:05 AM 14.0 °F -1.4 °F -4.0 °F 45% 30.07 in 10.0 mi SE 15.0 mph - N/A   Clear
12:25 AM 14.0 °F -0.8 °F -4.0 °F 45% 30.08 in 10.0 mi SE 13.8 mph - N/A   Clear
12:45 AM 15.8 °F 2.1 °F -4.0 °F 41% 30.08 in 10.0 mi SE 12.7 mph - N/A   Clear
1:05 AM 15.8 °F 2.1 °F -4.0 °F 41% 30.08 in 10.0 mi SE 12.7 mph - N/A   Clear
1:25 AM 15.8 °F 2.7 °F -4.0 °F 41% 30.08 in 10.0 mi SE 11.5 mph - N/A   Clear
1:45 AM 17.6 °F 5.7 °F -4.0 °F 38% 30.07 in 10.0 mi SSE 10.4 mph - N/A   Clear
2:05 AM 17.6 °F 5.0 °F -2.2 °F 42% 30.07 in 10.0 mi SE 11.5 mph - N/A   Clear
2:25 AM 17.6 °F 5.0 °F -2.2 °F 42% 30.07 in 10.0 mi SE 11.5 mph - N/A   Clear
2:45 AM 15.8 °F 2.7 °F -2.2 °F 45% 30.07 in 10.0 mi SE 11.5 mph - N/A   Clear
3:05 AM 15.8 °F 3.4 °F -2.2 °F 45% 30.07 in 10.0 mi SSE 10.4 mph - N/A   Clear
3:25 AM 17.6 °F 5.7 °F -2.2 °F 42% 30.06 in 10.0 mi SSE 10.4 mph - N/A   Clear
3:45 AM 17.6 °F 5.7 °F -2.2 °F 42% 30.06 in 10.0 mi SSE 10.4 mph - N/A   Clear
4:05 AM 19.4 °F 7.9 °F -0.4 °F 42% 30.06 in 10.0 mi SSE 10.4 mph - N/A   Clear
4:25 AM 19.4 °F 7.9 °F -0.4 °F 42% 30.06 in 10.0 mi South 10.4 mph - N/A   Clear
4:45 AM 21.2 °F 10.1 °F -0.4 °F 39% 30.06 in 10.0 mi South 10.4 mph - N/A   Clear
5:05 AM 21.2 °F 10.1 °F -0.4 °F 39% 30.07 in 10.0 mi South 10.4 mph - N/A   Clear
5:25 AM 21.2 °F 10.1 °F -0.4 °F 39% 30.07 in 10.0 mi South 10.4 mph - N/A   Clear
5:45 AM 21.2 °F 10.1 °F 1.4 °F 42% 30.08 in 10.0 mi SSW 10.4 mph - N/A   Clear
6:05 AM 21.2 °F 8.9 °F 1.4 °F 42% 30.09 in 10.0 mi SSW 12.7 mph - N/A   Clear
6:25 AM 24.8 °F 14.6 °F 1.4 °F 36% 30.08 in 10.0 mi SSW 10.4 mph - N/A   Clear
6:45 AM 26.6 °F 16.8 °F 1.4 °F 34% 30.08 in 10.0 mi SW 10.4 mph - N/A   Clear
7:05 AM 26.6 °F 16.8 °F 1.4 °F 34% 30.08 in 10.0 mi SW 10.4 mph - N/A   Clear
7:25 AM 28.4 °F 19.1 °F 1.4 °F 31% 30.09 in 10.0 mi SW 10.4 mph 16.1 mph N/A   Clear
7:45 AM 30.2 °F 21.3 °F 1.4 °F 29% 30.09 in 10.0 mi SW 10.4 mph 16.1 mph N/A   Clear
8:05 AM 30.2 °F 20.8 °F 1.4 °F 29% 30.10 in 10.0 mi SW 11.5 mph 17.3 mph N/A   Clear
8:25 AM 32.0 °F 23.0 °F 1.4 °F 27% 30.10 in 10.0 mi SW 11.5 mph 18.4 mph N/A   Clear
8:45 AM 32.0 °F 23.6 °F 1.4 °F 27% 30.10 in 10.0 mi SW 10.4 mph - N/A   Clear
9:05 AM 32.0 °F 23.6 °F 1.4 °F 27% 30.11 in 10.0 mi SW 10.4 mph 16.1 mph N/A   Scattered Clouds
9:25 AM 33.8 °F 25.3 °F 1.4 °F 25% 30.11 in 10.0 mi SW 11.5 mph 20.7 mph N/A   Clear
9:45 AM 35.6 °F 27.1 °F 1.4 °F 24% 30.12 in 10.0 mi WSW 12.7 mph 18.4 mph N/A   Scattered Clouds
10:05 AM 35.6 °F 26.2 °F 8.6 °F 33% 30.12 in 10.0 mi WSW 15.0 mph 23.0 mph N/A   Mostly Cloudy
10:25 AM 35.6 °F 27.5 °F 8.6 °F 33% 30.12 in 10.0 mi WSW 11.5 mph 21.9 mph N/A   Mostly Cloudy
10:45 AM 35.6 °F 26.2 °F 8.6 °F 33% 30.12 in 10.0 mi WSW 15.0 mph 21.9 mph N/A   Mostly Cloudy
11:05 AM 37.4 °F 29.8 °F 10.4 °F 33% 30.11 in 10.0 mi WSW 11.5 mph 18.4 mph N/A   Scattered Clouds
11:25 AM 37.4 °F 30.3 °F 10.4 °F 33% 30.12 in 10.0 mi WSW 10.4 mph 19.6 mph N/A   Clear
11:45 AM 37.4 °F 30.8 °F 10.4 °F 33% 30.11 in 10.0 mi WSW 9.2 mph 18.4 mph N/A   Clear
12:05 PM 39.2 °F 33.0 °F 10.4 °F 31% 30.11 in 10.0 mi WSW 9.2 mph 17.3 mph N/A   Clear
12:25 PM 41.0 °F 34.7 °F 10.4 °F 29% 30.10 in 10.0 mi SW 10.4 mph 17.3 mph N/A   Scattered Clouds
12:45 PM 41.0 °F 33.1 °F 12.2 °F 31% 30.09 in 10.0 mi WSW 15.0 mph 21.9 mph N/A   Scattered Clouds
1:05 PM 41.0 °F 33.1 °F 14.0 °F 33% 30.09 in 10.0 mi West 15.0 mph 19.6 mph N/A   Mostly Cloudy
1:25 PM 39.2 °F 31.6 °F 14.0 °F 36% 30.08 in 10.0 mi WSW 12.7 mph 23.0 mph N/A   Overcast
1:45 PM 39.2 °F 31.2 °F 15.8 °F 39% 30.08 in 10.0 mi SW 13.8 mph 19.6 mph N/A   Mostly Cloudy
2:05 PM 37.4 °F 28.5 °F 19.4 °F 48% 30.08 in 10.0 mi West 15.0 mph 24.2 mph N/A   Overcast
2:25 PM 37.4 °F 30.3 °F 19.4 °F 48% 30.08 in 10.0 mi WSW 10.4 mph 19.6 mph N/A   Overcast
2:45 PM 35.6 °F 29.9 °F 21.2 °F 56% 30.08 in 10.0 mi West 6.9 mph 18.4 mph N/A   Overcast
3:05 PM 35.6 °F 28.6 °F 21.2 °F 56% 30.08 in 10.0 mi WSW 9.2 mph 17.3 mph N/A   Overcast
3:25 PM 35.6 °F 30.7 °F 23.0 °F 60% 30.08 in 10.0 mi WSW 5.8 mph - N/A   Overcast
3:45 PM 35.6 °F 29.9 °F 23.0 °F 60% 30.07 in 10.0 mi SSW 6.9 mph - N/A   Overcast
4:05 PM 35.6 °F 29.9 °F 24.8 °F 65% 30.06 in 10.0 mi SW 6.9 mph 18.4 mph N/A   Overcast
4:25 PM 35.6 °F 28.0 °F 24.8 °F 65% 30.05 in 10.0 mi SW 10.4 mph - N/A   Overcast
4:45 PM 35.6 °F 28.6 °F 26.6 °F 70% 30.05 in 10.0 mi SSW 9.2 mph - N/A   Overcast
5:05 PM 35.6 °F 29.2 °F 26.6 °F 70% 30.06 in 10.0 mi SW 8.1 mph - N/A   Overcast
5:25 PM 33.8 °F 25.8 °F 26.6 °F 75% 30.07 in 10.0 mi WSW 10.4 mph - N/A   Overcast
5:45 PM 33.8 °F 27.7 °F 26.6 °F 75% 30.09 in 10.0 mi West 6.9 mph - N/A   Overcast
6:05 PM 33.8 °F 25.8 °F 26.6 °F 75% 30.09 in 10.0 mi WSW 10.4 mph 16.1 mph N/A   Overcast
6:25 PM 33.8 °F 26.4 °F 26.6 °F 75% 30.10 in 10.0 mi West 9.2 mph 17.3 mph N/A   Overcast
6:45 PM 33.8 °F 26.4 °F 26.6 °F 75% 30.09 in 10.0 mi WSW 9.2 mph - N/A   Overcast
7:05 PM 33.8 °F 27.7 °F 26.6 °F 75% 30.09 in 10.0 mi SW 6.9 mph - N/A   Overcast
7:25 PM 33.8 °F 27.0 °F 26.6 °F 75% 30.08 in 10.0 mi SW 8.1 mph - N/A   Overcast
7:45 PM 33.8 °F 26.4 °F 26.6 °F 75% 30.08 in 10.0 mi SW 9.2 mph - N/A   Overcast
8:05 PM 33.8 °F 27.7 °F 26.6 °F 75% 30.09 in 10.0 mi SW 6.9 mph - N/A   Overcast
8:25 PM 33.8 °F 25.8 °F 24.8 °F 70% 30.08 in 10.0 mi SW 10.4 mph 17.3 mph N/A   Overcast
8:45 PM 35.6 °F 29.2 °F 24.8 °F 65% 30.08 in 10.0 mi WSW 8.1 mph - N/A   Overcast
9:05 PM 35.6 °F 28.0 °F 24.8 °F 65% 30.09 in 10.0 mi WSW 10.4 mph 17.3 mph N/A   Overcast
9:25 PM 35.6 °F 27.5 °F 24.8 °F 65% 30.08 in 10.0 mi WSW 11.5 mph 19.6 mph N/A   Overcast
9:45 PM 35.6 °F 27.5 °F 24.8 °F 65% 30.09 in 10.0 mi WSW 11.5 mph 19.6 mph N/A   Overcast
10:05 PM 35.6 °F 27.1 °F 24.8 °F 65% 30.09 in 10.0 mi WSW 12.7 mph 17.3 mph N/A   Overcast
10:25 PM 35.6 °F 28.0 °F 24.8 °F 65% 30.09 in 10.0 mi WSW 10.4 mph 17.3 mph N/A   Overcast
10:45 PM 35.6 °F 27.5 °F 24.8 °F 65% 30.08 in 10.0 mi WSW 11.5 mph 17.3 mph N/A   Overcast
11:05 PM 35.6 °F 27.5 °F 24.8 °F 65% 30.07 in 10.0 mi WSW 11.5 mph 17.3 mph N/A   Overcast
11:25 PM 35.6 °F 28.0 °F 24.8 °F 65% 30.06 in 10.0 mi SW 10.4 mph - N/A   Overcast
11:45 PM 35.6 °F 28.0 °F 24.8 °F 65% 30.05 in 10.0 mi WSW 10.4 mph - N/A   Overcast